This is the latest recevied weather packets stored in our database for station/object Oberstadn. If no packets are shown the sender has not sent any weather packets the latest 10 day(s).
| Time | Temp. | Humidity | Pressure | Rain* | Wind** | Luminosity | Snow |
|---|---|---|---|---|---|---|---|
| 1777186931 | 8.89° C | 65% | 1023.4 hPa | 0 mm | - | - | - |
| 1777185136 | 7.22° C | 70% | 1023.4 hPa | 0 mm | - | - | - |
| 1777183335 | 3.89° C | 85% | 1023.3 hPa | 0 mm | - | - | - |
| 1777181533 | 1.67° C | 89% | 1023 hPa | 0 mm | - | - | - |
| 1777179731 | -0.56° C | 90% | 1022.7 hPa | 0 mm | - | - | - |
| 1777177931 | -1.11° C | 88% | 1022.6 hPa | 0 mm | - | - | - |
| 1777176142 | -0.56° C | 87% | 1022.1 hPa | 0 mm | - | - | - |
| 1777174331 | -0.56° C | 85% | 1021.9 hPa | 0 mm | - | - | - |
| 1777172531 | 0.56° C | 86% | 1021.9 hPa | 0 mm | - | - | - |
| 1777170732 | 0.56° C | 84% | 1021.7 hPa | 0 mm | - | - | - |
| 1777168932 | 0.56° C | 84% | 1021.3 hPa | 0 mm | - | - | - |
| 1777167132 | 1.11° C | 82% | 1021 hPa | 0 mm | - | - | - |
| 1777165333 | 1.67° C | 81% | 1021 hPa | 0 mm | - | - | - |
| 1777163529 | 2.22° C | 81% | 1020.8 hPa | 0 mm | - | - | - |
| 1777161729 | 2.78° C | 79% | 1020.6 hPa | 0 mm | - | - | - |
| 1777159929 | 3.33° C | 77% | 1020.5 hPa | 0 mm | - | - | - |
| 1777158129 | 3.89° C | 77% | 1020.4 hPa | 0 mm | - | - | - |
| 1777156330 | 5° C | 75% | 1020.1 hPa | 0 mm | - | - | - |
| 1777152732 | 6.67° C | 70% | 1019.9 hPa | 0 mm | - | - | - |
| 1777150929 | 7.78° C | 67% | 1019.8 hPa | 0 mm | - | - | - |
| 1777149130 | 10.56° C | 59% | 1019.4 hPa | 0 mm | - | - | - |
| 1777147329 | 12.78° C | 49% | 1019.3 hPa | 0 mm | - | - | - |
* Rain since midnight (hover to see other rain measurements)
** Current wind speed in m/s (hover to see current wind gust speed)